AirNav   ATP
 
 409 users online  

50F Bourland Field Airport
Fort Worth, Texas, USA

GOING TO FORT WORTH?


FAA INFORMATION EFFECTIVE 11 OCTOBER 2018

Location

FAA Identifier: 50F
Lat/Long: 32-34-54.6000N / 097-35-26.8000W
32-34.910000N / 097-35.446667W
32.5818333 / -97.5907778
(estimated)
Elevation: 873.2 ft. / 266.2 m (surveyed)
Variation: 06E (2000)
From city: 17 miles SW of FORT WORTH, TX
Time zone: UTC -5 (UTC -6 during Standard Time)
Zip code: 76126

Airport Operations

Airport use: Open to the public
Activation date: 09/1981
Control tower: no
ARTCC: FORT WORTH CENTER
FSS: FORT WORTH FLIGHT SERVICE STATION
NOTAMs facility: FTW (NOTAM-D service available)
Attendance: DAYLIGHT HOURS
FOR SVCS AFT HRS CALL 817-396-4554.
Wind indicator: lighted
Segmented circle: yes
Lights: ACTVT MIRL RY 17/35, VASI RYS 17 & 35 - CTAF.
Beacon: white-green (lighted land airport)
Operates sunset to sunrise.

Airport Communications

CTAF/UNICOM: 123.0
REGIONAL APPROACH: 135.975
REGIONAL DEPARTURE: 135.975
DODJE STAR: 125.2 125.9
LIKES STAR: 125.8(SOUTH) 135.975(NORTH)
MOTZA STAR: 118.1(SOUTH) 125.8(NORTH)
REEKO STAR: 125.2
SANGR STAR: 124.3
SASIE STAR: 124.3
SLUGG STAR: 125.8(SOUTH) 135.975(NORTH)
WESAT STAR: 118.1(SOUTH) 125.8(NORTH)
WX AWOS-3 at GDJ (14 nm SW): 118.925 (817-573-7514)
WX AWOS-3 at FWS (14 nm E): 120.025 (817-426-4172)
WX AWOS-3 at CPT (16 nm SE): 119.525 (817-641-4135)
WX ASOS at FTW (18 nm NE): PHONE 817-740-3346

Nearby radio navigation aids

VOR radial/distance  VOR name  Freq  Var
MQPr104/22.3MILLSAP VORTAC117.7009E
FUZr222/27.8RANGER VORTAC115.7006E
JENr024/29.2GLEN ROSE VORTAC115.0006E
TTTr232/32.7MAVERICK VOR/DME113.1006E
CVEr236/39.3COWBOY VOR/DME116.2006E

Airport Services

Fuel available: 100LL JET-A
FUEL AVBL SELF SERVE AND FULL SERVICE
Parking: hangars and tiedowns

Runway Information

Runway 17/35

Dimensions: 4049 x 60 ft. / 1234 x 18 m
Surface: asphalt, in good condition
Runway edge lights: medium intensity
RY 17/35 NSTD MIRL; LENSES ON THLD & DSPLCD THLD CLEAR LENSES WITH SOLID COLOR BULBS.
RUNWAY 17  RUNWAY 35
Latitude: 32-35.240523N32-34.580380N
Longitude: 097-35.505517W097-35.388090W
Elevation: 873.1 ft.836.7 ft.
Traffic pattern: leftleft
Runway heading: 165 magnetic, 171 true345 magnetic, 351 true
Displaced threshold: 392 ft.215 ft.
Markings: nonprecision, in good conditionnonprecision, in good condition
Visual slope indicator: 2-box VASI on left (3.00 degrees glide path)2-box VASI on left (3.00 degrees glide path)
Touchdown point: yes, no lightsyes, no lights
Obstructions: 32 ft. pole, 356 ft. from runway, 250 ft. right of centerline, 4:1 slope to clear
+20 FT ROAD 0 FT FM PAVEMENT 125 FT R TO 125 FT FM PAVEMENT 250 FT LEFT. +4 FT FENCE 0 FT FM PAVEMENT 80 FT RIGHT TO 100 FT FM PAVEMENT 250 FT LEFT.
24 ft. trees, 217 ft. from runway, 115 ft. right of centerline
+30 FT TREES 0-120 FT FM PAVEMENT 60 FT R & L.

Airport Ownership and Management from official FAA records

Ownership: Privately-owned
Owner: MATT RIX
17611 HWY 377 SOUTH
CRESSON, TX 76035
Phone 817-307-0718
ALSO MATTHEW MOORE - 682-521-7056.
Manager: NATALIE RIX
204 CONSTELLATION DR
CRESSON, TX 76035
Phone 817-396-4554

Airport Operational Statistics

Aircraft based on the field: 118
Single engine airplanes: 100
Multi engine airplanes: 15
Jet airplanes: 2
Helicopters: 1
    
Aircraft operations: avg 128/day *
75% local general aviation
25% transient general aviation
* for 12-month period ending 05 April 2016

Additional Remarks

FOR CD CTC REGIONAL APCH AT 972-615-2799.

Instrument Procedures

NOTE: All procedures below are presented as PDF files. If you need a reader for these files, you should download the free Adobe Reader.

NOT FOR NAVIGATION. Please procure official charts for flight.
FAA instrument procedures published for use from 11 October 2018 at 0901Z to 8 November 2018 at 0900Z.

 
STARs - Standard Terminal Arrivals
LIKES THREE (RNAV)   download (195KB)
MOTZA EIGHT   2 pages: [1] [2] (500KB)
REEKO THREE (RNAV)   download (199KB)
SASIE FIVE   2 pages: [1] [2] (490KB)
TRUUK TWO (RNAV)   download (197KB)
WESAT TWO (RNAV)   download (192KB)
 
IAPs - Instrument Approach Procedures
RNAV (GPS) RWY 17   download (161KB)
RNAV (GPS) RWY 35   download (187KB)
VOR/DME-A   download (148KB)
 
Departure Procedures
GARLAND SIX   2 pages: [1] [2] (339KB)
HUBBARD NINE   2 pages: [1] [2] (328KB)
KINGDOM FOUR   2 pages: [1] [2] (368KB)
KUSSO FIVE (RNAV)   2 pages: [1] [2] (279KB)
SWABR FIVE (RNAV)   2 pages: [1] [2] (279KB)
NOTE: Special Take-Off Minimums/Departure Procedures apply   download

Other nearby airports with instrument procedures:

KWEA - Parker County Airport (11 nm NW)
KNFW - Fort Worth Naval Air Station JRB (Carswell Field) Airport (14 nm NE)
KGDJ - Granbury Regional Airport (14 nm SW)
KFWS - Fort Worth Spinks Airport (14 nm E)
KCPT - Cleburne Regional Airport (16 nm SE)
KFTW - Fort Worth Meacham International Airport (18 nm NE)
 
Loc | Ops | Rwys | IFR | FBO | Links
Com | Nav | Svcs | Stats | Notes


 
Area around 50F (Bourland Field Airport)
 
Road maps at: MapQuest Bing Google
 
Aerial photo
WARNING: Photo may not be current or correct
Aerial photo of 50F (Bourland Field Airport)
Photo by Paul Bristow
Photo taken 01-Jun-2008

Do you have a better or more recent aerial photo of Bourland Field Airport that you would like to share? If so, please send us your photo.

 
Sectional chart

 
Airport distance calculator
Flying to Bourland Field Airport? Find the distance to fly.

From to 50F

Sunrise and sunset
Times for 16-Oct-2018
 Local
(UTC-5)
 Zulu
(UTC)
Morning civil twilight07:1112:11
Sunrise07:3612:36
Sunset18:5623:56
Evening civil twilight19:2100:21

Current date and time
Zulu (UTC)  16-Oct-2018 06:11:42
Local (UTC-5)  16-Oct-2018 01:11:42
 
METAR
KNFW 
13nm NE 
160552Z AUTO 36013KT -RA BKN014 OVC022 08/06 A3027 RMK AO2 SLP232 P0003 60003 T00830061 10094 20083 400940056 55015 $
KGDJ 
14nm SW 
AWOS-3 118.925 817-573-7514
160555Z AUTO 35008KT 10SM RA SCT016 OVC023 08/06 A3028 RMK AO2 P0010 60016 T00800062 10090 20076 400900052
KFWS 
15nm E 
160555Z AUTO 36010KT 7SM RA OVC008 08/07 A3027 RMK AO2 P0012 60017 T00760070 10076 20065 400870046
KCPT 
16nm SE 
160555Z AUTO 01012KT 3SM +RA 07/07 A3026 RMK AO2
KFTW 
19nm NE 
160604Z 35011G21KT 10SM RA BKN008 BKN015 OVC021 07/06 A3027 RMK AO2 CIG 007V013 P0001 T00670061
KGKY 
25nm E 
160600Z AUTO 36013KT 7SM RA BKN008 OVC029 07/07 A3025 RMK AO2 T00720072 PNO $
TAF
KNFW 
13nm NE 
1523/1623 36012KT 9999 VCSH SCT015 OVC030 QNH3019INS TEMPO 1523/1605 5000 -RA BR BKN008 BECMG 1605/1607 36015KT 3200 RA BR BKN006 OVC012 QNH3027INS FM161100 35016KT 3200 RA BR OVC006 QNH3028INS FM161500 36012KT 5000 RA BR BKN006 OVC012 QNH3026INS FM162100 34009KT 5000 RA BR BKN012 OVC025 QNH3025INS AUTOMATED SENSOR METWATCH 1604 TIL 1611 T06/1613Z T09/1622Z FN20048
KFTW 
19nm NE 
160520Z 1606/1706 01016KT 2SM RA OVC015 FM161000 01012KT 2SM RA BKN007 FM161500 36015KT 5SM RA BKN007 FM161900 36015KT P6SM SHRA BKN015 OVC030
NOTAMs
Click for the latest NOTAMs
NOTAMs are issued by the DoD/FAA and will open in a separate window not controlled by AirNav.

 

 
 

FBO, Fuel Providers, and Aircraft Ground Support

  
 Business Name 
 
 Contact 
 
 Services / Description 
 
Fuel Prices
 
Comments
  
Bourland Field 817-396-4554
[web site]
[email]
Airport management, Aviation fuel, Aircraft parking (ramp or tiedown), Hangars, Hangar leasing / sales, Passenger terminal and lounge, Rental cars, ...

More info about Bourland Field
Avfuel
100LL Jet A
FS --- $3.61 
SS $4.34 $3.61 
 Updated 23-Jul-2018
 
   write
FS=Full service
SS=Self service
Update Fuel Prices
 

Would you like to see your business listed on this page?

 If your business provides an interesting product or service to pilots, flight crews, aircraft, or users of the Bourland Field Airport, you should consider listing it here.  To start the listing process, click on the button below
 
Add a business
 

Other Pages about Bourland Field Airport

www.bourlandestates.com/bourlandfield.htm
 
Update a link
 
Copyright © AirNav, LLC. All rights reserved. Privacy Policy  Contact